Time,TemperatureF,DewpointF,PressureIn,WindDirection,WindDirectionDegrees,WindSpeedMPH,WindSpeedGustMPH,Humidity,HourlyPrecipIn,Conditions,Clouds,dailyrainin,SolarRadiationWatts/m^2,SoftwareType,DateUTC
2013-03-06 00:02:00,32.0,28.0,-100.00,NNE,29,1.0,4.0,86,0.00,,,0.03,0.000000,,2013-03-06 05:02:00,
2013-03-06 00:10:00,30.0,27.0,-100.00,WSW,246,1.0,3.0,90,0.00,,,0.03,0.000000,,2013-03-06 05:10:00,
2013-03-06 00:32:00,30.0,27.0,-100.00,WSW,246,1.0,3.0,90,0.00,,,0.03,0.000000,,2013-03-06 05:32:00,
2013-03-06 00:42:00,30.0,27.0,-100.00,WSW,246,1.0,3.0,90,0.00,,,0.03,0.000000,,2013-03-06 05:42:00,
2013-03-06 00:52:00,30.0,27.0,-100.00,WSW,246,1.0,3.0,90,0.00,,,0.03,0.000000,,2013-03-06 05:52:00,
2013-03-06 01:02:00,30.0,27.0,-100.00,WSW,246,1.0,3.0,90,0.00,,,0.03,0.000000,,2013-03-06 06:02:00,
2013-03-06 01:10:00,32.0,29.0,-100.00,NNE,22,0.0,4.0,89,0.00,,,0.03,0.000000,,2013-03-06 06:10:00,
2013-03-06 01:32:00,32.0,29.0,-100.00,NNE,22,0.0,4.0,89,0.00,,,0.03,0.000000,,2013-03-06 06:32:00,
2013-03-06 01:42:00,32.0,29.0,-100.00,NNE,22,0.0,4.0,89,0.00,,,0.03,0.000000,,2013-03-06 06:42:00,
2013-03-06 01:52:00,32.0,29.0,-100.00,NNE,22,0.0,4.0,89,0.00,,,0.03,0.000000,,2013-03-06 06:52:00,
2013-03-06 02:01:00,32.0,29.0,-100.00,NNE,22,0.0,4.0,89,0.00,,,0.03,0.000000,,2013-03-06 07:01:00,
2013-03-06 02:10:00,34.0,31.0,-100.00,ENE,77,3.0,7.0,88,0.00,,,0.03,0.000000,,2013-03-06 07:10:00,
2013-03-06 02:32:00,34.0,31.0,-100.00,ENE,77,3.0,7.0,88,0.00,,,0.03,0.000000,,2013-03-06 07:32:00,
2013-03-06 02:42:00,34.0,31.0,-100.00,ENE,77,3.0,7.0,88,0.00,,,0.03,0.000000,,2013-03-06 07:42:00,
2013-03-06 02:52:00,34.0,31.0,-100.00,ENE,77,3.0,7.0,88,0.00,,,0.03,0.000000,,2013-03-06 07:52:00,
2013-03-06 03:01:00,34.0,31.0,-100.00,ENE,77,3.0,7.0,88,0.00,,,0.03,0.000000,,2013-03-06 08:01:00,
2013-03-06 03:10:00,33.0,27.0,-100.00,ENE,76,2.0,5.0,79,0.00,,,0.03,0.000000,,2013-03-06 08:10:00,
2013-03-06 03:32:00,33.0,27.0,-100.00,ENE,76,2.0,5.0,79,0.00,,,0.03,0.000000,,2013-03-06 08:32:00,
2013-03-06 03:42:00,33.0,27.0,-100.00,ENE,76,2.0,5.0,79,0.00,,,0.03,0.000000,,2013-03-06 08:42:00,
2013-03-06 03:52:00,33.0,27.0,-100.00,ENE,76,2.0,5.0,79,0.00,,,0.03,0.000000,,2013-03-06 08:52:00,
2013-03-06 04:02:00,33.0,27.0,-100.00,ENE,76,2.0,5.0,79,0.00,,,0.03,0.000000,,2013-03-06 09:02:00,
2013-03-06 04:10:00,34.0,28.0,-100.00,NE,48,2.0,8.0,77,0.00,,,0.03,0.000000,,2013-03-06 09:10:00,
2013-03-06 04:32:00,34.0,28.0,-100.00,NE,48,2.0,8.0,77,0.00,,,0.03,0.000000,,2013-03-06 09:32:00,
2013-03-06 04:42:00,34.0,28.0,-100.00,NE,48,2.0,8.0,77,0.00,,,0.03,0.000000,,2013-03-06 09:42:00,
2013-03-06 04:52:00,34.0,28.0,-100.00,NE,48,2.0,8.0,77,0.00,,,0.03,0.000000,,2013-03-06 09:52:00,
2013-03-06 05:02:00,34.0,28.0,-100.00,NE,48,2.0,8.0,77,0.00,,,0.03,0.000000,,2013-03-06 10:02:00,
2013-03-06 05:10:00,33.0,28.0,-100.00,NNE,25,2.0,5.0,80,0.00,,,0.03,0.000000,,2013-03-06 10:10:00,
2013-03-06 05:42:00,33.0,28.0,-100.00,NNE,25,2.0,5.0,80,0.00,,,0.03,0.000000,,2013-03-06 10:42:00,
2013-03-06 05:52:00,33.0,28.0,-100.00,NNE,25,2.0,5.0,80,0.00,,,0.03,0.000000,,2013-03-06 10:52:00,
2013-03-06 06:02:00,33.0,28.0,-100.00,NNE,25,2.0,5.0,80,0.00,,,0.03,0.000000,,2013-03-06 11:02:00,
2013-03-06 06:10:00,33.0,28.0,-100.00,East,81,2.0,10.0,81,0.00,,,0.03,0.000000,,2013-03-06 11:10:00,
2013-03-06 06:32:00,33.0,28.0,-100.00,East,81,2.0,10.0,81,0.00,,,0.03,0.000000,,2013-03-06 11:32:00,
2013-03-06 06:42:00,33.0,28.0,-100.00,East,81,2.0,10.0,81,0.00,,,0.03,0.000000,,2013-03-06 11:42:00,
2013-03-06 06:52:00,33.0,28.0,-100.00,East,81,2.0,10.0,81,0.00,,,0.03,0.000000,,2013-03-06 11:52:00,
2013-03-06 07:02:00,33.0,28.0,-100.00,East,81,2.0,10.0,81,0.00,,,0.03,0.000000,,2013-03-06 12:02:00,
2013-03-06 07:10:00,34.0,28.0,-100.00,NE,52,2.0,9.0,78,0.00,,,0.03,9.000000,,2013-03-06 12:10:00,
2013-03-06 07:33:00,34.0,28.0,-100.00,NE,52,2.0,9.0,78,0.00,,,0.03,9.000000,,2013-03-06 12:33:00,
2013-03-06 07:43:00,34.0,28.0,-100.00,NE,52,2.0,9.0,78,0.00,,,0.03,9.000000,,2013-03-06 12:43:00,
2013-03-06 07:53:00,34.0,28.0,-100.00,NE,52,2.0,9.0,78,0.00,,,0.03,9.000000,,2013-03-06 12:53:00,
2013-03-06 08:02:00,34.0,28.0,-100.00,NE,52,2.0,9.0,78,0.00,,,0.03,9.000000,,2013-03-06 13:02:00,
2013-03-06 08:10:00,35.0,25.0,-100.00,East,91,3.0,10.0,67,0.00,,,0.03,46.000000,,2013-03-06 13:10:00,
2013-03-06 08:32:00,35.0,25.0,-100.00,East,91,3.0,10.0,67,0.00,,,0.03,46.000000,,2013-03-06 13:32:00,
2013-03-06 08:42:00,35.0,25.0,-100.00,East,91,3.0,10.0,67,0.00,,,0.03,46.000000,,2013-03-06 13:42:00,
2013-03-06 08:52:00,35.0,25.0,-100.00,East,91,3.0,10.0,67,0.00,,,0.03,46.000000,,2013-03-06 13:52:00,
2013-03-06 09:02:00,35.0,25.0,-100.00,East,91,3.0,10.0,67,0.00,,,0.03,46.000000,,2013-03-06 14:02:00,
2013-03-06 09:10:00,36.0,24.0,-100.00,East,95,4.0,10.0,61,0.00,,,0.03,97.000000,,2013-03-06 14:10:00,
2013-03-06 09:32:00,36.0,24.0,-100.00,East,95,4.0,10.0,61,0.00,,,0.03,97.000000,,2013-03-06 14:32:00,
2013-03-06 09:42:00,36.0,24.0,-100.00,East,95,4.0,10.0,61,0.00,,,0.03,97.000000,,2013-03-06 14:42:00,
2013-03-06 09:53:00,36.0,24.0,-100.00,East,95,4.0,10.0,61,0.00,,,0.03,97.000000,,2013-03-06 14:53:00,
2013-03-06 10:02:00,36.0,24.0,-100.00,East,95,4.0,10.0,61,0.00,,,0.03,97.000000,,2013-03-06 15:02:00,
2013-03-06 10:10:00,38.0,24.0,-100.00,East,86,4.0,14.0,57,0.00,,,0.02,151.000000,,2013-03-06 15:10:00,
2013-03-06 10:32:00,38.0,24.0,-100.00,East,86,4.0,14.0,57,0.00,,,0.02,151.000000,,2013-03-06 15:32:00,
2013-03-06 10:42:00,38.0,24.0,-100.00,East,86,4.0,14.0,57,0.00,,,0.02,151.000000,,2013-03-06 15:42:00,
2013-03-06 10:52:00,38.0,24.0,-100.00,East,86,4.0,14.0,57,0.00,,,0.02,151.000000,,2013-03-06 15:52:00,
2013-03-06 11:02:00,38.0,24.0,-100.00,East,86,4.0,14.0,57,0.00,,,0.02,151.000000,,2013-03-06 16:02:00,
2013-03-06 11:10:00,37.0,22.0,-100.00,East,86,4.0,11.0,55,0.00,,,0.00,167.000000,,2013-03-06 16:10:00,
2013-03-06 11:42:00,37.0,22.0,-100.00,East,86,4.0,11.0,55,0.00,,,0.00,167.000000,,2013-03-06 16:42:00,
2013-03-06 11:52:00,37.0,22.0,-100.00,East,86,4.0,11.0,55,0.00,,,0.00,167.000000,,2013-03-06 16:52:00,
2013-03-06 12:01:00,37.0,22.0,-100.00,East,86,4.0,11.0,55,0.00,,,0.00,167.000000,,2013-03-06 17:01:00,
2013-03-06 12:32:00,38.0,24.0,-100.00,ENE,75,3.0,13.0,57,0.00,,,0.00,159.000000,,2013-03-06 17:32:00,
2013-03-06 12:42:00,38.0,24.0,-100.00,ENE,75,3.0,13.0,57,0.00,,,0.00,159.000000,,2013-03-06 17:42:00,
2013-03-06 12:53:00,38.0,24.0,-100.00,ENE,75,3.0,13.0,57,0.00,,,0.00,159.000000,,2013-03-06 17:53:00,
2013-03-06 13:02:00,38.0,24.0,-100.00,ENE,75,3.0,13.0,57,0.00,,,0.00,159.000000,,2013-03-06 18:02:00,
2013-03-06 13:10:00,39.0,21.0,-100.00,East,92,3.0,9.0,49,0.00,,,0.00,204.000000,,2013-03-06 18:10:00,
2013-03-06 13:32:00,39.0,21.0,-100.00,East,92,3.0,9.0,49,0.00,,,0.00,204.000000,,2013-03-06 18:32:00,
2013-03-06 13:42:00,39.0,21.0,-100.00,East,92,3.0,9.0,49,0.00,,,0.00,204.000000,,2013-03-06 18:42:00,
2013-03-06 13:53:00,39.0,21.0,-100.00,East,92,3.0,9.0,49,0.00,,,0.00,204.000000,,2013-03-06 18:53:00,
2013-03-06 14:02:00,39.0,21.0,-100.00,East,92,3.0,9.0,49,0.00,,,0.00,204.000000,,2013-03-06 19:02:00,
2013-03-06 14:10:00,41.0,24.0,-100.00,East,82,3.0,12.0,51,0.00,,,0.00,180.000000,,2013-03-06 19:10:00,
2013-03-06 14:43:00,41.0,24.0,-100.00,East,82,3.0,12.0,51,0.00,,,0.00,180.000000,,2013-03-06 19:43:00,
2013-03-06 14:53:00,41.0,24.0,-100.00,East,82,3.0,12.0,51,0.00,,,0.00,180.000000,,2013-03-06 19:53:00,
2013-03-06 15:02:00,41.0,24.0,-100.00,East,82,3.0,12.0,51,0.00,,,0.00,180.000000,,2013-03-06 20:02:00,
2013-03-06 15:10:00,38.0,23.0,-100.00,East,81,3.0,9.0,55,0.00,,,0.00,109.000000,,2013-03-06 20:10:00,
2013-03-06 15:33:00,38.0,23.0,-100.00,East,81,3.0,9.0,55,0.00,,,0.00,109.000000,,2013-03-06 20:33:00,
2013-03-06 15:43:00,38.0,23.0,-100.00,East,81,3.0,9.0,55,0.00,,,0.00,109.000000,,2013-03-06 20:43:00,
2013-03-06 15:53:00,38.0,23.0,-100.00,East,81,3.0,9.0,55,0.00,,,0.00,109.000000,,2013-03-06 20:53:00,
2013-03-06 16:02:00,38.0,23.0,-100.00,East,81,3.0,9.0,55,0.00,,,0.00,109.000000,,2013-03-06 21:02:00,
2013-03-06 16:10:00,36.0,23.0,-100.00,East,80,3.0,10.0,60,0.00,,,0.00,73.000000,,2013-03-06 21:10:00,
2013-03-06 16:42:00,36.0,23.0,-100.00,East,80,3.0,10.0,60,0.00,,,0.00,73.000000,,2013-03-06 21:42:00,
2013-03-06 16:52:00,36.0,23.0,-100.00,East,80,3.0,10.0,60,0.00,,,0.00,73.000000,,2013-03-06 21:52:00,
2013-03-06 17:02:00,36.0,23.0,-100.00,East,80,3.0,10.0,60,0.00,,,0.00,73.000000,,2013-03-06 22:02:00,
2013-03-06 17:10:00,35.0,24.0,-100.00,ENE,74,3.0,7.0,63,0.00,,,0.00,24.000000,,2013-03-06 22:10:00,
2013-03-06 17:32:00,35.0,24.0,-100.00,ENE,74,3.0,7.0,63,0.00,,,0.00,24.000000,,2013-03-06 22:32:00,
2013-03-06 17:42:00,35.0,24.0,-100.00,ENE,74,3.0,7.0,63,0.00,,,0.00,24.000000,,2013-03-06 22:42:00,
2013-03-06 17:52:00,35.0,24.0,-100.00,ENE,74,3.0,7.0,63,0.00,,,0.00,24.000000,,2013-03-06 22:52:00,
2013-03-06 18:02:00,35.0,24.0,-100.00,ENE,74,3.0,7.0,63,0.00,,,0.00,24.000000,,2013-03-06 23:02:00,
2013-03-06 18:10:00,33.0,22.0,-100.00,East,88,2.0,5.0,64,0.00,,,0.00,2.000000,,2013-03-06 23:10:00,
2013-03-06 18:32:00,33.0,22.0,-100.00,East,88,2.0,5.0,64,0.00,,,0.00,2.000000,,2013-03-06 23:32:00,
2013-03-06 18:42:00,33.0,22.0,-100.00,East,88,2.0,5.0,64,0.00,,,0.00,2.000000,,2013-03-06 23:42:00,
2013-03-06 18:52:00,33.0,22.0,-100.00,East,88,2.0,5.0,64,0.00,,,0.00,2.000000,,2013-03-06 23:52:00,
2013-03-06 19:02:00,33.0,22.0,-100.00,East,88,2.0,5.0,64,0.00,,,0.00,2.000000,,2013-03-07 00:02:00,
2013-03-06 19:10:00,33.0,25.0,-100.00,ENE,74,4.0,7.0,72,0.00,,,0.00,0.000000,,2013-03-07 00:10:00,
2013-03-06 19:32:00,33.0,25.0,-100.00,ENE,74,4.0,7.0,72,0.00,,,0.00,0.000000,,2013-03-07 00:32:00,
2013-03-06 19:42:00,33.0,25.0,-100.00,ENE,74,4.0,7.0,72,0.00,,,0.00,0.000000,,2013-03-07 00:42:00,
2013-03-06 19:52:00,33.0,25.0,-100.00,ENE,74,4.0,7.0,72,0.00,,,0.00,0.000000,,2013-03-07 00:52:00,
2013-03-06 20:02:00,33.0,25.0,-100.00,ENE,74,4.0,7.0,72,0.00,,,0.00,0.000000,,2013-03-07 01:02:00,
2013-03-06 20:10:00,32.0,25.0,-100.00,East,99,2.0,7.0,74,0.00,,,0.00,0.000000,,2013-03-07 01:10:00,
2013-03-06 20:32:00,32.0,25.0,-100.00,East,99,2.0,7.0,74,0.00,,,0.00,0.000000,,2013-03-07 01:32:00,
2013-03-06 20:42:00,32.0,25.0,-100.00,East,99,2.0,7.0,74,0.00,,,0.00,0.000000,,2013-03-07 01:42:00,
2013-03-06 20:52:00,32.0,25.0,-100.00,East,99,2.0,7.0,74,0.00,,,0.00,0.000000,,2013-03-07 01:52:00,
2013-03-06 21:01:00,32.0,25.0,-100.00,East,99,2.0,7.0,74,0.00,,,0.00,0.000000,,2013-03-07 02:01:00,
2013-03-06 21:10:00,31.0,21.0,-100.00,East,87,4.0,8.0,67,0.00,,,0.00,0.000000,,2013-03-07 02:10:00,
2013-03-06 21:32:00,31.0,21.0,-100.00,East,87,4.0,8.0,67,0.00,,,0.00,0.000000,,2013-03-07 02:32:00,
2013-03-06 21:42:00,31.0,21.0,-100.00,East,87,4.0,8.0,67,0.00,,,0.00,0.000000,,2013-03-07 02:42:00,
2013-03-06 21:52:00,31.0,21.0,-100.00,East,87,4.0,8.0,67,0.00,,,0.00,0.000000,,2013-03-07 02:52:00,
2013-03-06 22:02:00,31.0,21.0,-100.00,East,87,4.0,8.0,67,0.00,,,0.00,0.000000,,2013-03-07 03:02:00,
2013-03-06 22:10:00,30.0,20.0,-100.00,East,88,3.0,8.0,65,0.00,,,0.00,0.000000,,2013-03-07 03:10:00,
2013-03-06 22:32:00,30.0,20.0,-100.00,East,88,3.0,8.0,65,0.00,,,0.00,0.000000,,2013-03-07 03:32:00,
2013-03-06 22:42:00,30.0,20.0,-100.00,East,88,3.0,8.0,65,0.00,,,0.00,0.000000,,2013-03-07 03:42:00,
2013-03-06 22:52:00,30.0,20.0,-100.00,East,88,3.0,8.0,65,0.00,,,0.00,0.000000,,2013-03-07 03:52:00,
2013-03-06 23:02:00,30.0,20.0,-100.00,East,88,3.0,8.0,65,0.00,,,0.00,0.000000,,2013-03-07 04:02:00,
2013-03-06 23:10:00,30.0,19.0,-100.00,ENE,74,3.0,10.0,62,0.00,,,0.00,0.000000,,2013-03-07 04:10:00,
2013-03-06 23:32:00,30.0,19.0,-100.00,ENE,74,3.0,10.0,62,0.00,,,0.00,0.000000,,2013-03-07 04:32:00,
2013-03-06 23:42:00,30.0,19.0,-100.00,ENE,74,3.0,10.0,62,0.00,,,0.00,0.000000,,2013-03-07 04:42:00,
2013-03-06 23:52:00,30.0,19.0,-100.00,ENE,74,3.0,10.0,62,0.00,,,0.00,0.000000,,2013-03-07 04:52:00,